Impacts METAR Board
IDs:

KSTL - St Louis/Lambert Int, MO, US

Updated at: 0700 UTC 16 Oct 2018
Potential Impact None Slight Moderate High
Time 15/19Z 15/20Z 15/21Z 15/22Z 15/23Z 16/00Z 16/01Z 16/02Z 16/03Z 16/04Z 16/05Z 16/06Z 16/07Z
Temp45 48 48 49 48 45 43 42 42 42 42 39 37
Dewpt32 33 32 33 33 34 34 35 36 36 36 35 35
Altim30.32 30.32 30.32 30.32 30.32 30.32 30.32 30.32 30.33 30.33 30.33 30.33 30.35
VIS10 10 10 10 10 10 10 10 10 10 10 10 10
CIG130 200 250 250 250 -- 250 250 250 250 250 -- 250
CoverBKNBKNBKNBKNBKNSCTBKNBKNBKNBKNBKNFEWBKN
FltCatVFRVFRVFRVFRVFRVFRVFRVFRVFRVFRVFRVFRVFR
WX--------------------------
WDir3503303203103203603403203303202802800
WSpd10 9 9 7 5 3 4 3 4 4 3 3 0
WGst-- -- -- -- -- -- -- -- -- -- -- -- --
Raw hourly METARs
KSTL 151851Z 35010KT 10SM FEW029 BKN130 BKN250 07/00 A3032 RMK AO2 SLPNO T00720000
KSTL 151951Z 33009KT 10SM FEW030 FEW130 BKN200 BKN250 09/01 A3032 RMK AO2 SLP269 T00890006
KSTL 152051Z 32009KT 10SM FEW032 FEW150 BKN250 09/00 A3032 RMK AO2 SLP270 T00890000 56003
KSTL 152151Z 31007KT 10SM FEW150 BKN250 09/01 A3032 RMK AO2 SLP272 T00940006
KSTL 152251Z 32005KT 10SM BKN250 09/01 A3032 RMK AO2 SLP272 T00890006
KSTL 152351Z 36003KT 10SM SCT250 07/01 A3032 RMK AO2 SLP272 T00720011 10094 20067 58000
KSTL 160051Z 34004KT 10SM BKN250 06/01 A3032 RMK AO2 SLP275 T00610011
KSTL 160151Z 32003KT 10SM BKN250 06/02 A3032 RMK AO2 SLP275 T00560017
KSTL 160251Z 33004KT 10SM BKN250 06/02 A3033 RMK AO2 SLP275 T00560022 51003
KSTL 160351Z 32004KT 10SM BKN250 06/02 A3033 RMK AO2 SLP275 T00560022
KSTL 160451Z 28003KT 10SM BKN250 06/02 A3033 RMK AO2 SLP276 T00560022
KSTL 160551Z 28003KT 10SM FEW250 04/02 A3033 RMK AO2 SLP277 T00390017 10072 20039 401060039 51003
KSTL 160651Z 00000KT 10SM BKN250 03/02 A3035 RMK AO2 SLP283 T00280017



Page loaded:  07:27 UTC  |   12:27 AM Pacific  |   01:27 AM Mountain  |   02:27 AM Central  |   03:27 AM Eastern

 

ADVISORIES

FORECASTS

FORECASTS

OBSERVATIONS

USER TOOLS

ABOUT US